Regional Weather Roundup
Issued by NWS

Home | Current Version | Previous Version | Graphics & Text | Print | Product List | Glossary On
Versions: 1 2 3 4 5 6 7 8 9 10 11 12 13 14 15 16 17 18 19 20 21 22 23 24 25 26 27 28 29 30 31 32 33 34 35 36 37 38 39 40 41 42 43 44 45 46 47 48 49 50
000
ASUS43 KDTX 260501
RWRMI
MICHIGAN HOURLY REGIONAL WEATHER ROUNDUP
NATIONAL WEATHER SERVICE DETROIT/PONTIAC MI
100 AM EDT SUN APR 26 2015

NOTE: "FAIR" INDICATES FEW OR NO CLOUDS BELOW 12,000 FEET WITH NO
SIGNIFICANT WEATHER AND/OR OBSTRUCTION TO VISIBILITY.

MIZ047>049-052>055-059>063-066>070-074>076-081>083-260600-
SOUTHEAST LOWER MICHIGAN

CITY           SKY/WX    TMP DP  RH WIND       PRES   REMARKS
ADRIAN         PTCLDY    42  28  57 NE12      29.82R
ALMA           CLEAR     36  26  65 N6        29.89S WCI  31
ANN ARBOR      PTCLDY    40  26  57 NE12      29.83R WCI  33
BAD AXE        CLEAR     35  25  66 N5        29.88S WCI  31
CARO           CLEAR     33  26  74 CALM      29.87S
DETROIT CITY   PTCLDY    39  25  57 N13       29.83S WCI  31
DETROIT        PTCLDY    42  25  50 N10       29.84R
FLINT          PTCLDY    38  24  57 NE8       29.87S WCI  32
GROSSE ILE     MOCLDY    43  27  52 N10       29.81S
HILLSDALE      PTCLDY    42  26  52 NE5       29.81R
HOWELL         PTCLDY    38  24  57 NE3       29.85R

CITY           SKY/WX    TMP DP  RH WIND       PRES   REMARKS
JACKSON        PTCLDY    41  26  55 NE9       29.83R
LAMBERTVILLE   MOCLDY    43  28  56 NE6       29.82R
LANSING        MOCLDY    37  24  59 N6        29.87S WCI  32
LAPEER         FAIR      34  25  68 NE6       29.86S WCI  29
MASON          MOCLDY    38  26  60 NE7       29.85S WCI  33
MONROE         PTCLDY    43  27  52 NE7       29.80R
PONTIAC        PTCLDY    37  24  59 N12       29.83R WCI  29
PORT HOPE        N/A     40  31  70 N12       29.87S WCI  33
PORT HURON     CLEAR     37  28  70 N8        29.85S WCI  31
TRI CITIES     CLEAR     38  28  67 N8        29.89S WCI  32
MIDLAND        FAIR      36  25  64 CALM      29.89S
TROY           PTCLDY    40  25  56 N9        29.85S WCI  34
SAGINAW HB     CLEAR     34  28  80 CALM      29.88S
$$
MIZ043>046-050>051-056>058-064>065-071>073-077>080-260600-
SOUTHWEST LOWER MICHIGAN

CITY           SKY/WX    TMP DP  RH WIND       PRES   REMARKS
BATTLE CREEK   PTCLDY    41  27  57 NE8       29.85R
BENTON HARBOR  CLEAR     42  28  57 NE6       29.84R
BIG RAPIDS     CLEAR     37  24  59 CALM      29.89S
COLDWATER      CLEAR     40  26  57 NE7       29.82R WCI  35
FREMONT        FAIR      38  22  53 E6        29.88S WCI  33
HOLLAND        PTCLDY    44  25  47 NE7       29.87R
GRAND RAPIDS   PTCLDY    39  24  55 NE9       29.87R WCI  33
IONIA          FAIR      37  25  61 NE6       29.87S WCI  32
KALAMAZOO      PTCLDY    42  27  55 NE6       29.85R
LUDINGTON      CLEAR     36  26  67 CALM      29.92R
MARSHALL       PTCLDY    39  27  60 NE5       29.83R
MOUNT PLEASANT CLEAR     35  27  71 CALM      29.89S
MUSKEGON       CLEAR     42  22  44 NE10      29.89R
SOUTH HAVEN    CLEAR     44  27  51 E6        29.85R
$$
MIZ016>042-260600-
NORTHERN LOWER MICHIGAN

CITY           SKY/WX    TMP DP  RH WIND       PRES   REMARKS
BEAVER ISLAND  CLEAR     35  24  65 N3        29.97S
BELLAIRE       CLEAR     33  28  82 CALM      29.95R
CADILLAC       CLEAR     29  22  75 CALM      29.91R
CHARLEVOIX     CLEAR     36  29  76 N9        29.98S WCI  29
FRANKFORT      CLEAR     43  22  42 NE3       29.94R
GAYLORD        CLEAR     37  21  52 VRB3      29.91F
GRAYLING       CLEAR     26  22  84 CALM      29.93R
HARBOR SPRINGS PTCLDY    37  23  55 CALM      29.94S
HOUGHTON LAKE  CLEAR     29  25  85 CALM      29.91S
MANISTEE       CLEAR     34  21  60 NE3       29.93R
OSCODA         CLOUDY    35  27  71 CALM      29.90S
PELLSTON       CLOUDY    33  25  72 W7        29.95S WCI  27
ROGERS CITY    CLEAR     37  25  62 W3        29.94S
TRAVERSE CITY  CLEAR     32  27  81 CALM      29.94R
$$
MIZ007>008-015-260600-
EASTERN UPPER MICHIGAN

CITY           SKY/WX    TMP DP  RH WIND       PRES   REMARKS
KINROSS        CLEAR     34  27  75 N9        29.95S WCI  26
MACKINAC ISLAN CLEAR     35  25  68 N9        29.95S WCI  27
NEWBERRY       CLEAR     32  25  74 NW5       29.97S WCI  27
S. S. MARIE    CLEAR     32  25  75 W7        29.95S WCI  26
$$
MIZ004>006-011>014-085-260600-
CENTRAL UPPER MICHIGAN

CITY           SKY/WX    TMP DP  RH WIND       PRES   REMARKS
MANISTIQUE     CLEAR     31  23  70 NW8       29.98S WCI  24
ESCANABA       CLEAR     34  19  55 N6        29.99S WCI  29
MENOMINEE      CLEAR     36  19  51 N9        29.98S WCI  29
SAWYER-GWINN   CLEAR     28  17  61 N5        29.99S WCI  23
$$
MIZ001>003-009>011-084-260600-
WESTERN UPPER MICHIGAN

CITY           SKY/WX    TMP DP  RH WIND       PRES   REMARKS
IRON MOUNTAIN  CLEAR     30  18  60 NW3       29.99R
HOUGHTON       CLEAR     32  19  58 NW6       30.02S WCI  26
COPPER HARBOR    N/A     34  19  54 N3        30.03S
IRONWOOD       CLEAR     28  27  93 CALM      30.01R
$$

ABBREVIATIONS USED IN REMARKS
   TC - TEMPERATURE IN CELSIUS
  WCI - WIND CHILL INDEX
   HX - HEAT INDEX
  VSB - VISIBILITY



USA.gov is the U.S. government's official web portal to all federal, state and local government web resources and services.